Location: Saluda
(35.2377°N, 82.3468°W)
Time: 05:03:16
(UTC+00:00)

Vanguard 2 Rocket - Pass Details

Date: 07 October 2022
Orbit: 555 x 3321 km, 32.9° (Epoch: 05 December)

Event Time Altitude Azimuth Distance (km) Brightness Sun altitude
Rises 04:08:14 0° 256° (WSW) 7,090 11.6 -56.2°
Reaches altitude 10° 04:13:24 10° 256° (WSW) 5,827 11.0 -56.8°
Enters shadow 04:19:12 25° 254° (WSW) 4,342 10.2 -57.4°
Maximum altitude 04:30:06 78° 174° (S) 2,082 - -58.3°
Drops below altitude 10° 04:39:28 10° 89° (E) 3,472 - -59.0°
Sets 04:41:46 0° 88° (E) 4,172 - -59.1°
